Zurück zum Katalog

THORAD AGENA D DEB

AktivPO
NORAD 4818·DEBRIS·🇺🇸 United States

Gestartet Apr 8, 1970 von Vandenberg Space Force Base

Loading…

Nächste Überflüge

TLE

Source: Space-Track
1 04818U 70025DZ  26230.23043451  .00000754  00000-0  18908-2 0  9994
2 04818  99.8895 137.3817 0271984  53.5270  95.6403 13.10379788687942

Verfolge THORAD AGENA D DEB in Echtzeit mit AllMySat

Download on the App Store